Miscellaneous Local Product
Issued by NWS Hastings, NE

Home | Current Version | Previous Version | Graphics & Text | Print | Product List | Glossary On
Versions: 1 2 3 4 5 6 7 8 9 10 11 12 13 14 15 16 17 18 19 20 21 22 23 24 25 26 27 28 29 30 31 32 33 34 35 36 37 38 39 40 41 42 43 44 45 46 47 48 49 50
335
AXUS43 KGID 241002
MISGRI

GID CWA HOURLY WEATHER ROUNDUP
NATIONAL WEATHER SERVICE HASTINGS NE
500 AM CDT TUE APR 24 2018

NOTE: "FAIR" INDICATES FEW OR NO CLOUDS BELOW 12,000 FEET WITH NO
SIGNIFICANT WEATHER AND/OR OBSTRUCTIONS TO VISIBILITY.

...SOUTH CENTRAL NEBRASKA...

CITY           SKY/WX    TMP DP  RH WIND       PRES   REMARKS
GRAND ISLAND   CLOUDY    47  39  74 CALM      30.11S
KEARNEY        MOCLDY    46  40  79 NW7       30.13R
HASTINGS       MOCLDY    45  40  82 CALM      30.11S
ORD            CLOUDY    47  41  80 NW5       30.12R
YORK             N/A     46  34  61 E6        30.11F
AURORA         PTCLDY    46  36  68 E3        30.10F
LEXINGTON      CLOUDY    51  43  75 NW8       30.15S
HOLDREGE       MOCLDY    45  40  80 CALM      30.13R
HEBRON         CLOUDY    38  35  89 CALM      30.11F

...NEBRASKA PANHANDLE...

CITY           SKY/WX    TMP DP  RH WIND       PRES   REMARKS
CHADRON        CLOUDY    37  33  85 NW14G23   30.33R WCI  28
ALLIANCE       CLOUDY    36  33  89 NW21G26   30.29R WCI  25
SCOTTSBLUFF    CLOUDY    37  33  85 NW16      30.35R WCI  28
SIDNEY         CLOUDY    36  33  89 NW20G28   30.30R WCI  25

...WESTERN AND NORTH CENTRAL NEBRASKA...

CITY           SKY/WX    TMP DP  RH WIND       PRES   REMARKS
VALENTINE      CLOUDY    42  38  85 NW21G30   30.20R
AINSWORTH      CLOUDY    42  40  93 NW18G28   30.19R
ONEILL         CLOUDY    55  48  79 W5        30.14S
BROKEN BOW     CLOUDY    53  47  79 NW17      30.15R
IMPERIAL       LGT RAIN  41  39  93 NW18G28   30.23R
NORTH PLATTE   CLOUDY    46  40  79 N14G24    30.21R
MCCOOK         MOCLDY    51  47  86 NW15      30.16R

...EASTERN NEBRASKA...

CITY           SKY/WX    TMP DP  RH WIND       PRES   REMARKS
NORFOLK        CLOUDY    46  38  73 CALM      30.11S
SO SIOUX CITY  PTCLDY    46  41  82 E3        30.12F
TEKAMAH        CLEAR     39  36  89 N6        30.12F WCI  35
COLUMBUS       PTCLDY    45  36  70 E6        30.11F
ALBION         MOCLDY    46  37  71 CALM      30.12R
OMAHA EPPLEY   PTCLDY    43  37  79 N7        30.11F
MILLARD        CLEAR     47  37  68 CALM      30.11F
LINCOLN        CLEAR     37  31  78 N7        30.12F WCI  32
NEBRASKA CITY  CLEAR     48  32  53 N6        30.11F
BEATRICE       CLEAR     39  32  77 CALM      30.11F
FALLS CITY     CLEAR     42  31  64 NW6       30.10S

...NORTHERN KANSAS...

CITY           SKY/WX    TMP DP  RH WIND       PRES   REMARKS
GOODLAND       RAIN      41  40  96 N20G32    30.21S FOG
HILL CITY      CLOUDY    46  42  86 NW3       30.13S
NORTON         CLOUDY    46  39  76 W9        30.13R
PHILLIPSBURG   CLEAR     43  37  81 NW6       30.11F
BELOIT         CLEAR     36  34  93 CALM      30.11S
HAYS           CLEAR     41  39  93 SW7       30.12S
RUSSELL        CLEAR     48  40  73 SE3       30.10S
CONCORDIA      CLOUDY    49  34  56 CALM      30.10F
SALINA         CLEAR     48  41  76 NW3       30.11R
TOPEKA         PTCLDY    43  39  86 CALM      30.09S



USA.gov is the U.S. government's official web portal to all federal, state and local government web resources and services.